| time (UTC) | temp F | wind direction | speed MPH | gust MPH | rain 1hr in | rain 24hr in | rain mn in | humidity % | barometer mb |
| 20260510130026 | 67 | 115 | 0.0 | 2.0 | 0.00 | 1.99 | 0.00 | 94 | 1016.1 |
| 20260510124526 | 66 | 149 | 0.0 | 2.0 | 0.00 | 2.19 | 0.00 | 94 | 1016.1 |
| 20260510123028 | 66 | 171 | 0.0 | 3.0 | 0.00 | 2.90 | 0.00 | 94 | 1015.8 |
| 20260510121523 | 66 | 157 | 0.0 | 3.0 | 0.00 | 3.25 | 0.00 | 94 | 1015.6 |
| 20260510120030 | 66 | 65 | 1.0 | 4.0 | 0.00 | 3.27 | 0.00 | 94 | 1015.2 |
| 20260510114526 | 65 | 42 | 0.0 | 2.0 | 0.00 | 3.27 | 0.00 | 94 | 1015.0 |
| 20260510113020 | 65 | 49 | 0.0 | 3.0 | 0.00 | 3.27 | 0.00 | 94 | 1014.6 |
| 20260510111522 | 65 | 49 | 1.0 | 2.0 | 0.00 | 3.27 | 0.00 | 94 | 1014.2 |
| 20260510110033 | 65 | 117 | 0.0 | 2.0 | 0.00 | 3.27 | 0.00 | 94 | 1013.9 |
| 20260510104511 | 65 | 333 | 0.0 | 3.0 | 0.00 | 3.27 | 0.00 | 94 | 1013.6 |
| 20260510103018 | 65 | 67 | 2.0 | 3.0 | 0.00 | 3.27 | 0.00 | 94 | 1013.5 |
| 20260510101523 | 65 | 67 | 0.0 | 3.0 | 0.00 | 3.27 | 0.00 | 94 | 1013.4 |
| 20260510100027 | 65 | 74 | 0.0 | 0.0 | 0.00 | 3.27 | 0.00 | 94 | 1013.2 |
| 20260510094543 | 65 | 77 | 1.0 | 3.0 | 0.00 | 3.27 | 0.00 | 94 | 1012.9 |
| 20260510093016 | 65 | 96 | 0.0 | 3.0 | 0.00 | 3.27 | 0.00 | 94 | 1012.9 |
| 20260510091525 | 65 | 92 | 0.0 | 3.0 | 0.00 | 3.27 | 0.00 | 94 | 1012.9 |
| 20260510090026 | 65 | 333 | 0.0 | 2.0 | 0.00 | 3.27 | 0.00 | 94 | 1013.1 |
| 20260510084507 | 66 | 69 | 1.0 | 3.0 | 0.00 | 3.27 | 0.00 | 94 | 1013.1 |
| 20260510083012 | 66 | 71 | 1.0 | 3.0 | 0.00 | 3.28 | 0.00 | 94 | 1013.1 |
| 20260510081516 | 66 | 86 | 0.0 | 2.0 | 0.00 | 3.35 | 0.00 | 94 | 1012.9 |
| 20260510080023 | 66 | 360 | 0.0 | 1.0 | 0.00 | 3.43 | 0.00 | 94 | 1012.7 |
| 20260510074526 | 66 | 54 | 0.0 | 1.0 | 0.00 | 3.57 | 0.00 | 93 | 1012.5 |
| 20260510073009 | 66 | 25 | 0.0 | 2.0 | 0.00 | 3.64 | 0.00 | 93 | 1012.7 |
| 20260510071516 | 67 | 59 | 0.0 | 2.0 | 0.00 | 3.68 | 0.00 | 93 | 1012.6 |
| 20260510070023 | 67 | 41 | 0.0 | 2.0 | 0.00 | 3.68 | 0.00 | 94 | 1012.5 |
| 20260510064525 | 67 | 47 | 0.0 | 1.0 | 0.00 | 3.69 | 0.00 | 94 | 1012.6 |
| 20260510063027 | 67 | 103 | 0.0 | 1.0 | 0.00 | 3.70 | 0.00 | 94 | 1012.8 |
| 20260510061510 | 67 | 136 | 0.0 | 0.0 | 0.00 | 3.71 | 0.00 | 93 | 1012.9 |
| 20260510060016 | 67 | 136 | 0.0 | 0.0 | 0.00 | 3.71 | 0.00 | 93 | 1012.9 |
| 20260510054520 | 66 | 136 | 0.0 | 0.0 | 0.00 | 3.71 | 0.00 | 93 | 1012.9 |
| 20260510053044 | 66 | 136 | 0.0 | 0.0 | 0.00 | 3.71 | 0.00 | 93 | 1012.9 |
| 20260510051527 | 66 | 136 | 0.0 | 0.0 | 0.00 | 3.80 | 0.00 | 93 | 1012.9 |
| 20260510050013 | 67 | 136 | 0.0 | 0.0 | 0.00 | 3.94 | 0.00 | 93 | 1012.9 |
| 20260510044520 | 67 | 144 | 0.0 | 0.0 | 0.00 | 4.10 | 3.94 | 93 | 1012.8 |
| 20260510043037 | 67 | 148 | 0.0 | 0.0 | 0.00 | 4.10 | 3.94 | 93 | 1012.8 |
| 20260510041528 | 68 | 148 | 0.0 | 0.0 | 0.00 | 4.10 | 3.94 | 93 | 1012.5 |
| 20260510040035 | 68 | 329 | 0.0 | 0.0 | 0.00 | 4.10 | 3.94 | 93 | 1013.0 |
| 20260510034517 | 68 | 153 | 2.0 | 4.0 | 0.00 | 4.10 | 3.94 | 93 | 1012.3 |
| 20260510033020 | 68 | 141 | 0.0 | 2.0 | 0.00 | 4.10 | 3.94 | 93 | 1013.4 |
| 20260510031525 | 68 | 137 | 0.0 | 1.0 | 0.00 | 4.10 | 3.94 | 93 | 1013.6 |
| 20260510030028 | 68 | 134 | 0.0 | 1.0 | 0.00 | 4.10 | 3.94 | 93 | 1013.3 |
| 20260510024528 | 68 | 143 | 0.0 | 1.0 | 0.00 | 4.10 | 3.94 | 93 | 1013.0 |
| 20260510023018 | 68 | 131 | 0.0 | 3.0 | 0.00 | 4.10 | 3.94 | 93 | 1012.5 |
| 20260510021537 | 68 | 122 | 0.0 | 3.0 | 0.00 | 4.10 | 3.94 | 93 | 1012.7 |
| 20260510020026 | 69 | 158 | 1.0 | 3.0 | 0.01 | 4.10 | 3.94 | 93 | 1012.9 |
| 20260510014532 | 68 | 290 | 1.0 | 2.0 | 0.01 | 4.10 | 3.94 | 93 | 1013.0 |
| 20260510013028 | 68 | 336 | 1.0 | 4.0 | 0.06 | 4.10 | 3.94 | 93 | 1012.1 |
| 20260510011530 | 68 | 172 | 1.0 | 4.0 | 0.07 | 4.10 | 3.94 | 93 | 1011.7 |
| 20260510010023 | 68 | 136 | 2.0 | 6.0 | 0.06 | 4.09 | 3.93 | 93 | 1011.7 |
| 20260510004531 | 68 | 152 | 2.0 | 5.0 | 0.08 | 4.09 | 3.93 | 93 | 1011.7 |
| 20260510003028 | 68 | 140 | 0.0 | 2.0 | 0.04 | 4.05 | 3.88 | 93 | 1012.2 |
| 20260510001515 | 68 | 283 | 1.0 | 6.0 | 0.03 | 4.04 | 3.87 | 93 | 1011.9 |
| 20260510000035 | 68 | 136 | 2.0 | 5.0 | 0.03 | 4.04 | 3.87 | 93 | 1011.1 |
| 20260509234523 | 68 | 125 | 0.0 | 2.0 | 0.02 | 4.02 | 3.85 | 93 | 1012.0 |
| 20260509233006 | 68 | 128 | 1.0 | 3.0 | 0.02 | 4.01 | 3.84 | 93 | 1011.5 |
| 20260509231514 | 68 | 147 | 1.0 | 2.0 | 0.03 | 4.01 | 3.84 | 93 | 1012.1 |
| 20260509230018 | 68 | 117 | 0.0 | 3.0 | 0.05 | 4.01 | 3.84 | 93 | 1011.8 |
| 20260509224527 | 68 | 115 | 0.0 | 2.0 | 0.07 | 4.01 | 3.83 | 93 | 1011.7 |
| 20260509223008 | 68 | 139 | 1.0 | 3.0 | 0.07 | 4.02 | 3.82 | 93 | 1011.3 |
| 20260509221511 | 68 | 124 | 1.0 | 4.0 | 0.07 | 4.04 | 3.81 | 93 | 1011.0 |
| 20260509220020 | 68 | 158 | 0.0 | 3.0 | 0.05 | 4.05 | 3.79 | 93 | 1012.0 |
| 20260509214521 | 68 | 144 | 1.0 | 3.0 | 0.02 | 4.03 | 3.76 | 93 | 1011.3 |
| 20260509213029 | 68 | 136 | 1.0 | 4.0 | 0.04 | 4.03 | 3.75 | 92 | 1011.3 |
| 20260509211508 | 67 | 245 | 0.0 | 2.0 | 0.07 | 4.03 | 3.74 | 92 | 1011.3 |
| 20260509210014 | 67 | 295 | 0.0 | 1.0 | 0.12 | 4.05 | 3.74 | 92 | 1010.9 |
| 20260509204519 | 67 | 150 | 0.0 | 1.0 | 0.17 | 4.11 | 3.74 | 92 | 1010.4 |
| 20260509203022 | 67 | 64 | 0.0 | 4.0 | 0.20 | 4.14 | 3.71 | 92 | 1011.3 |
| 20260509201528 | 67 | 129 | 3.0 | 6.0 | 0.24 | 4.21 | 3.67 | 92 | 1011.2 |
| 20260509200010 | 67 | 168 | 0.0 | 4.0 | 0.25 | 4.25 | 3.62 | 93 | 1012.0 |
| 20260509194530 | 67 | 115 | 0.0 | 3.0 | 0.29 | 4.25 | 3.57 | 93 | 1013.1 |
| 20260509193026 | 67 | 145 | 1.0 | 4.0 | 0.28 | 4.23 | 3.51 | 93 | 1012.5 |
| 20260509191537 | 67 | 242 | 1.0 | 4.0 | 0.24 | 4.16 | 3.43 | 93 | 1012.0 |
| 20260509190030 | 67 | 121 | 1.0 | 3.0 | 0.21 | 4.10 | 3.37 | 93 | 1012.2 |
| 20260509184542 | 67 | 120 | 1.0 | 5.0 | 0.14 | 4.01 | 3.28 | 93 | 1012.4 |
| 20260509183020 | 67 | 129 | 1.0 | 5.0 | 0.11 | 3.96 | 3.23 | 93 | 1012.8 |
| 20260509181521 | 67 | 131 | 1.0 | 4.0 | 0.10 | 3.92 | 3.19 | 93 | 1012.0 |
| 20260509180023 | 67 | 91 | 3.0 | 5.0 | 0.09 | 3.89 | 3.16 | 93 | 1011.8 |
| 20260509174526 | 66 | 155 | 1.0 | 10.0 | 0.13 | 3.87 | 3.14 | 93 | 1012.2 |
| 20260509173016 | 66 | 143 | 2.0 | 9.0 | 0.27 | 3.85 | 3.12 | 93 | 1012.1 |
| 20260509171519 | 66 | 134 | 2.0 | 3.0 | 0.29 | 3.82 | 3.09 | 93 | 1012.7 |
| 20260509170023 | 66 | 127 | 2.0 | 5.0 | 0.49 | 3.80 | 3.07 | 93 | 1012.4 |
| 20260509164525 | 65 | 357 | 1.0 | 6.0 | 0.46 | 3.74 | 3.01 | 93 | 1012.0 |
| 20260509163039 | 65 | 124 | 1.0 | 4.0 | 0.42 | 3.58 | 2.85 | 93 | 1012.8 |
| 20260509161526 | 65 | 155 | 1.0 | 5.0 | 0.41 | 3.53 | 2.80 | 93 | 1012.4 |
| 20260509160019 | 65 | 159 | 2.0 | 5.0 | 0.23 | 3.31 | 2.58 | 92 | 1012.5 |
| 20260509154525 | 65 | 122 | 1.0 | 4.0 | 0.20 | 3.28 | 2.55 | 92 | 1013.2 |
| 20260509153039 | 65 | 156 | 1.0 | 3.0 | 0.11 | 3.16 | 2.43 | 92 | 1013.5 |
| 20260509151529 | 65 | 134 | 1.0 | 5.0 | 0.16 | 3.12 | 2.39 | 92 | 1013.1 |
| 20260509150018 | 65 | 135 | 2.0 | 4.0 | 0.21 | 3.08 | 2.34 | 92 | 1013.1 |
| 20260509144530 | 66 | 58 | 1.0 | 7.0 | 0.23 | 3.08 | 2.34 | 92 | 1012.3 |
| 20260509143029 | 66 | 145 | 0.0 | 3.0 | 0.23 | 3.05 | 2.32 | 92 | 1012.8 |
| 20260509141525 | 66 | 179 | 1.0 | 8.0 | 0.19 | 2.96 | 2.23 | 92 | 1012.8 |
| 20260509140016 | 66 | 63 | 4.0 | 8.0 | 0.19 | 2.87 | 2.14 | 92 | 1012.3 |
| 20260509134520 | 66 | 347 | 1.0 | 6.0 | 0.37 | 2.85 | 2.11 | 92 | 1012.7 |
| 20260509133026 | 66 | 124 | 1.0 | 6.0 | 1.04 | 2.82 | 2.08 | 92 | 1012.4 |
| 20260509131526 | 66 | 41 | 2.0 | 4.0 | 1.35 | 2.77 | 2.04 | 92 | 1012.6 |